FW0372 Weather Reports


time (UTC)temp
F
wind
direction
speed
knots
gust
knots
rain 1hr
in
rain 24hr
in
rain mn
in
humidity
%
barometer
mb
20211017163904 68 274 2.6 6.1 0.00 0.00 0.00 28 1027.4
20211017162913 67 129 1.7 5.2 0.00 0.00 0.00 30 1027.6
20211017162354 67 16 0.0 3.5 0.00 0.00 0.00 31 1027.7
20211017161357 66 136 0.9 4.3 0.00 0.00 0.00 33 1027.7
20211017160406 65 261 0.9 4.3 0.00 0.00 0.00 34 1027.6
20211017155413 65 187 0.0 2.6 0.00 0.00 0.00 39 1027.6
20211017154355 63 180 0.9 2.6 0.00 0.00 0.00 38 1027.5
20211017153401 62 119 0.9 3.5 0.00 0.00 0.00 41 1027.6
20211017152413 59 111 0.0 2.6 0.00 0.00 0.00 48 1027.5
20211017151852 58 112 0.9 2.6 0.00 0.00 0.00 52 1027.4
20211017150854 55 351 0.0 1.7 0.00 0.00 0.00 63 1027.2
20211017145858 52 351 0.0 0.0 0.00 0.00 0.00 74 1027.4
20211017144902 51 351 0.0 0.9 0.00 0.00 0.00 79 1027.3
20211017143904 49 355 0.0 0.9 0.00 0.00 0.00 79 1027.3
20211017142852 47 355 0.0 0.0 0.00 0.00 0.00 79 1027.3
20211017141903 45 355 0.0 0.0 0.00 0.00 0.00 79 1027.2
20211017140909 43 355 0.0 0.0 0.00 0.00 0.00 79 1027.0
20211017135901 42 355 0.0 0.0 0.00 0.00 0.00 79 1027.1
20211017134912 41 355 0.0 0.0 0.00 0.00 0.00 79 1027.3
20211017133857 40 355 0.0 0.0 0.00 0.00 0.00 79 1027.2
20211017132904 40 355 0.0 0.0 0.00 0.00 0.00 79 1027.0
20211017131908 39 355 0.0 0.0 0.00 0.00 0.00 78 1027.0
20211017130403 39 355 0.0 0.0 0.00 0.00 0.00 78 1026.9
20211017125415 39 355 0.0 0.0 0.00 0.00 0.00 78 1026.9
20211017124355 39 355 0.0 0.0 0.00 0.00 0.00 78 1026.8
20211017123354 40 355 0.0 0.0 0.00 0.00 0.00 78 1026.6
20211017122356 40 355 0.0 0.0 0.00 0.00 0.00 78 1026.7
20211017121357 40 355 0.0 0.0 0.00 0.00 0.00 78 1026.5
20211017120403 40 355 0.0 0.0 0.00 0.00 0.00 78 1026.4
20211017115411 40 355 0.0 0.0 0.00 0.00 0.00 78 1026.5
20211017114851 40 355 0.0 0.0 0.00 0.00 0.00 78 1026.6
20211017113858 39 355 0.0 0.0 0.00 0.00 0.00 78 1026.7
20211017112909 39 355 0.0 0.0 0.00 0.00 0.00 78 1026.7
20211017112411 39 355 0.0 0.0 0.00 0.00 0.00 77 1026.6
20211017111411 39 355 0.0 0.0 0.00 0.00 0.00 77 1026.3
20211017110407 39 355 0.0 0.0 0.00 0.00 0.00 77 1026.2
20211017105901 40 355 0.0 0.0 0.00 0.00 0.00 77 1026.2
20211017104909 40 355 0.0 0.0 0.00 0.00 0.00 77 1026.1
20211017103912 40 355 0.0 0.0 0.00 0.00 0.00 77 1026.1
20211017103354 40 355 0.0 0.0 0.00 0.00 0.00 77 1026.1
20211017102400 40 355 0.0 0.0 0.00 0.00 0.00 77 1026.1
20211017101401 40 355 0.0 0.0 0.00 0.00 0.00 77 1026.0
20211017100410 40 355 0.0 0.0 0.00 0.00 0.00 77 1025.8
20211017095400 40 355 0.0 0.0 0.00 0.00 0.00 77 1025.9
20211017094402 40 355 0.0 0.0 0.00 0.00 0.00 77 1025.9
20211017093403 41 355 0.0 0.0 0.00 0.00 0.00 76 1025.7
20211017092409 41 355 0.0 0.0 0.00 0.00 0.00 76 1025.7
20211017091354 41 355 0.0 0.0 0.00 0.00 0.00 76 1025.9
20211017090405 41 355 0.0 0.0 0.00 0.00 0.00 76 1025.7
20211017085413 41 355 0.0 0.0 0.00 0.00 0.00 76 1025.6
20211017083905 42 355 0.0 0.0 0.00 0.00 0.00 76 1025.7
20211017082907 42 355 0.0 0.0 0.00 0.00 0.00 76 1025.9
20211017082356 42 355 0.0 0.0 0.00 0.00 0.00 76 1025.9
20211017081401 42 355 0.0 0.0 0.00 0.00 0.00 76 1025.7
20211017080406 42 355 0.0 0.0 0.00 0.00 0.00 76 1025.9
20211017075409 42 355 0.0 0.0 0.00 0.00 0.00 75 1025.8
20211017074353 42 355 0.0 0.0 0.00 0.00 0.00 75 1025.9
20211017073402 42 355 0.0 0.0 0.00 0.00 0.00 75 1025.9
20211017072404 42 355 0.0 0.0 0.00 0.00 0.00 75 1025.8
20211017071410 42 355 0.0 0.0 0.00 0.00 0.00 75 1025.8
20211017065900 42 355 0.0 0.0 0.00 0.00 0.00 70 1025.8
20211017064911 42 355 0.0 0.0 0.00 0.00 0.00 69 1026.0
20211017063358 42 355 0.0 0.0 0.00 0.00 0.00 68 1026.0
20211017062404 43 355 0.0 0.0 0.00 0.00 0.00 68 1026.1
20211017061409 43 355 0.0 0.0 0.00 0.00 0.00 68 1026.0
20211017060354 43 355 0.0 0.0 0.00 0.00 0.00 67 1025.7
20211017055851 43 355 0.0 0.0 0.00 0.00 0.00 67 1025.7
20211017055337 43 355 0.0 0.0 0.00 0.00 0.00 66 1025.6
20211017054345 43 355 0.0 0.0 0.00 0.00 0.00 66 1025.7
20211017053355 44 355 0.0 0.0 0.00 0.00 0.00 66 1025.6
20211017052851 44 355 0.0 0.0 0.00 0.00 0.00 66 1025.8
20211017052352 44 351 0.0 0.0 0.00 0.00 0.00 67 1025.7
20211017051351 44 355 0.0 0.0 0.00 0.00 0.00 67 1025.8
20211017050834 44 355 0.0 0.0 0.00 0.00 0.00 67 1025.8
20211017045859 45 355 0.0 0.0 0.00 0.00 0.00 67 1025.7
20211017044848 45 355 0.0 0.0 0.00 0.00 0.00 66 1025.9
20211017043857 45 351 0.0 0.0 0.00 0.00 0.00 66 1025.9
20211017042857 46 355 0.0 0.0 0.00 0.00 0.00 66 1025.9
20211017041839 46 355 0.0 0.0 0.00 0.00 0.00 66 1025.9
20211017040845 46 355 0.0 0.0 0.00 0.00 0.00 66 1026.1
20211017040344 46 355 0.0 0.0 0.00 0.00 0.00 66 1026.1
20211017035351 47 355 0.0 0.0 0.00 0.00 0.00 66 1026.2
20211017034355 47 355 0.0 0.9 0.00 0.00 0.00 65 1026.2
20211017033839 47 355 0.0 0.0 0.00 0.00 0.00 65 1026.1
20211017032852 47 355 0.0 0.0 0.00 0.00 0.00 64 1025.9
20211017031851 48 355 0.0 0.0 0.00 0.00 0.00 63 1025.7
20211017030856 48 355 0.0 0.0 0.00 0.00 0.00 63 1025.8
20211017030339 49 351 0.0 0.0 0.00 0.00 0.00 62 1025.8
20211017025345 49 355 0.0 0.0 0.00 0.00 0.00 61 1025.7
20211017023852 50 355 0.0 0.0 0.00 0.00 0.00 58 1025.7
20211017022335 51 355 0.0 0.0 0.00 0.00 0.00 55 1025.7
20211017021340 51 355 0.0 0.0 0.00 0.00 0.00 55 1025.7
20211017020336 52 355 0.0 1.7 0.00 0.00 0.00 55 1025.7
20211017015344 52 351 0.0 0.0 0.00 0.00 0.00 57 1025.3
20211017014351 52 351 0.0 0.0 0.00 0.00 0.00 55 1025.3
20211017013834 53 351 0.0 0.9 0.00 0.00 0.00 54 1025.2
20211017012854 53 351 0.0 0.0 0.00 0.00 0.00 52 1025.0
20211017011840 54 351 0.0 0.0 0.00 0.00 0.00 49 1025.2
20211017010851 55 351 0.0 0.0 0.00 0.00 0.00 47 1025.3
20211017005854 56 351 0.0 0.0 0.00 0.00 0.00 44 1025.0
20211017005336 57 351 0.0 0.0 0.00 0.00 0.00 44 1025.0
20211017004340 57 351 0.0 0.0 0.00 0.00 0.00 40 1025.0
20211017003348 59 351 0.0 0.0 0.00 0.00 0.00 37 1025.0
20211017002348 60 351 0.0 0.0 0.00 0.00 0.00 36 1024.9
20211017001350 61 351 0.0 0.0 0.00 0.00 0.00 34 1025.0
20211017000339 62 351 0.0 0.0 0.00 0.00 0.00 32 1024.8
20211016235350 64 351 0.0 0.0 0.00 0.00 0.00 30 1024.8
20211016234835 64 351 0.0 0.0 0.00 0.00 0.00 29 1024.9
20211016233841 66 351 0.0 0.0 0.00 0.00 0.00 33 1024.9
20211016232848 66 351 0.0 0.9 0.00 0.00 0.00 25 1024.9
20211016231851 67 232 0.0 1.7 0.00 0.00 0.00 25 1024.8
20211016231332 68 265 0.0 0.9 0.00 0.00 0.00 24 1024.9
20211016230337 68 265 0.0 1.7 0.00 0.00 0.00 22 1024.9
20211016225344 69 240 0.0 1.7 0.00 0.00 0.00 22 1025.0
20211016224352 70 324 0.0 7.0 0.00 0.00 0.00 22 1025.1
20211016223833 70 286 0.9 7.0 0.00 0.00 0.00 19 1025.0
20211016222839 71 334 0.9 3.5 0.00 0.00 0.00 19 1025.0
20211016221849 71 308 0.0 4.3 0.00 0.00 0.00 18 1025.2
20211016220853 71 331 0.0 3.5 0.00 0.00 0.00 17 1025.2
20211016220337 71 299 0.9 4.3 0.00 0.00 0.00 17 1025.1
20211016215343 71 244 0.9 6.1 0.00 0.00 0.00 18 1025.2
20211016214349 71 38 0.9 7.8 0.00 0.00 0.00 17 1025.3
20211016213837 72 48 0.9 4.3 0.00 0.00 0.00 17 1025.4
20211016212842 71 102 0.9 6.1 0.00 0.00 0.00 17 1025.3
20211016211849 71 298 1.7 10.4 0.00 0.00 0.00 17 1025.5
20211016211337 72 290 2.6 10.4 0.00 0.00 0.00 16 1025.5
20211016210345 72 322 0.9 7.8 0.00 0.00 0.00 17 1025.5
20211016205353 72 26 1.7 7.0 0.00 0.00 0.00 18 1025.5
20211016204836 72 298 1.7 7.0 0.00 0.00 0.00 17 1025.5
20211016203845 71 271 0.9 3.5 0.00 0.00 0.00 18 1025.6
20211016202845 71 294 1.7 8.7 0.00 0.00 0.00 19 1025.6
20211016201832 71 208 3.5 8.7 0.00 0.00 0.00 18 1025.7
20211016200838 71 247 1.7 8.7 0.00 0.00 0.00 19 1025.7
20211016195843 71 244 2.6 7.0 0.00 0.00 0.00 21 1025.8
20211016194850 72 208 1.7 4.3 0.00 0.00 0.00 20 1025.8
20211016193837 72 234 1.7 7.0 0.00 0.00 0.00 19 1025.9
20211016192844 72 31 0.9 3.5 0.00 0.00 0.00 20 1026.1
20211016191844 71 251 1.7 9.6 0.00 0.00 0.00 19 1026.3
20211016190858 71 302 1.7 4.3 0.00 0.00 0.00 21 1026.3
20211016190333 71 327 1.7 7.0 0.00 0.00 0.00 20 1026.5
20211016185343 71 211 1.7 7.0 0.00 0.00 0.00 16 1026.7
20211016184909 71 116 0.9 4.3 0.00 0.00 0.00 17 1026.7
20211016183850 70 5 3.5 7.8 0.00 0.00 0.00 17 1026.8
20211016182839 70 311 1.7 4.3 0.00 0.00 0.00 20 1027.0
20211016181848 70 72 2.6 7.0 0.00 0.00 0.00 19 1027.0
20211016180838 70 219 1.7 3.5 0.00 0.00 0.00 19 1027.2
20211016175846 70 14 1.7 10.4 0.00 0.00 0.00 20 1027.5
20211016174844 70 19 1.7 7.0 0.00 0.00 0.00 21 1027.6
20211016173830 69 304 1.7 5.2 0.00 0.00 0.00 19 1027.7
20211016172839 69 317 1.7 8.7 0.00 0.00 0.00 18 1027.6
20211016171907 69 299 1.7 5.2 0.00 0.00 0.00 23 1027.7
20211016170852 68 290 1.7 7.0 0.00 0.00 0.00 23 1027.7
20211016165900 68 331 1.7 10.4 0.00 0.00 0.00 23 1027.7
20211016164847 68 347 2.6 5.2 0.00 0.00 0.00 25 1027.7